CAPE
0 0 0 0 0 0 0 0 0 0 0 0 0 0 0 0 0 0 0 0 0 0 65 214 0 365 273 310 589 619 66 2 0 0 0 0 0 0 0 0 0 0 0 0 0
0 0 0 0 0 0 0 0 0 0 0 0 0 0 0 0 0 0 0 0 0 0 0 14 166 279 279 231 308 446 76 119 44 0 0 0 0 0 0 0 0 0 0 0 0
0 0 0 0 0 0 0 0 0 0 0 0 0 0 0 0 0 0 0 0 0 0 31 192 212 296 207 0 38 415 44 47 3 0 0 0 4 0 0 0 0 0 0 5 0
0 0 0 0 0 0 0 0 0 0 0 0 0 0 0 0 0 0 0 0 0 0 2 270 327 197 0 61 63 134 138 25 0 0 0 1 0 0 5 6 0 0 16 20 0
0 0 0 0 0 0 0 0 0 0 0 0 0 0 0 0 0 0 0 0 0 0 4 3 82 52 0 54 90 67 6 0 0 0 8 19 37 23 3 0 0 0 38 53 25
0 0 0 0 0 0 0 0 0 0 0 0 0 0 0 0 0 0 0 1 0 0 88 0 19 4 3 69 22 11 0 0 0 0 0 6 5 13 0 0 0 0 0 84 63
0 0 0 0 0 0 0 0 0 0 0 0 0 0 0 0 0 0 0 0 0 0 365 354 81 111 35 65 18 1 0 0 0 0 0 3 24 28 0 0 0 0 0 0 12
0 0 0 0 0 0 0 0 0 0 0 0 0 0 0 0 0 0 0 0 0 7 195 210 102 148 73 18 6 13 0 0 0 0 0 0 1 10 0 1 1 0 0 0 0
0 0 0 0 0 0 0 0 0 0 0 0 0 0 0 0 0 0 0 0 0 2 64 196 12 17 55 26 11 5 5 4 0 5 0 0 0 0 0 0 1 0 0 0 0
1 0 0 0 0 0 0 0 0 0 0 0 0 0 0 0 0 0 0 0 0 0 0 0 0 2 1 4 5 0 4 9 2 0 34 0 0 0 0 0 0 0 0 0 0
0 0 0 0 0 0 0 0 0 0 0 0 0 0 0 0 0 0 0 0 0 0 0 0 0 9 6 1 0 2 0 4 0 0 12 70 0 0 0 0 0 18 19 0 0
0 0 0 0 0 0 0 0 0 0 0 0 0 0 0 0 0 0 0 0 0 0 0 0 7 2 0 0 0 8 8 1 9 11 45 128 106 0 0 0 0 25 29 3 1
0 0 0 0 0 0 0 0 0 0 0 0 0 0 0 0 0 0 0 0 0 0 0 1 7 0 0 0 0 18 9 4 0 18 43 68 95 154 9 0 0 0 6 0 3
0 0 0 0 0 0 0 0 0 0 0 0 0 0 0 0 0 0 0 0 0 0 0 0 0 0 0 0 0 3 10 15 0 1 24 31 19 37 62 2 0 0 0 0 0
0 1 0 0 0 0 0 0 0 0 0 0 0 0 0 0 0 0 0 0 0 0 0 0 0 0 0 0 0 0 0 10 38 36 25 57 47 7 0 24 0 0 0 0 0
0 0 0 0 0 0 0 0 0 0 0 0 0 0 0 0 0 0 0 0 0 0 0 0 0 0 0 0 0 0 0 0 0 5 22 2 19 0 0 3 8 0 0 0 0
0 0 0 0 0 0 0 0 0 0 0 0 0 0 0 0 0 0 0 0 0 0 0 0 0 0 0 0 0 0 0 0 0 0 0 0 0 0 0 0 26 29 36 4 0
0 0 0 0 0 0 0 0 0 0 0 0 0 0 0 0 0 0 0 0 0 0 0 0 0 0 0 0 0 0 0 0 0 0 0 0 0 0 0 0 49 165 113 47 29
0 0 0 0 0 0 0 0 0 0 0 0 0 0 0 0 0 0 0 0 0 0 0 0 0 0 0 0 0 0 0 0 0 0 0 0 0 0 9 10 105 134 141 171 124
0 0 0 0 0 0 0 0 0 0 0 0 0 0 0 0 0 0 0 0 0 0 0 0 0 0 0 0 0 0 0 0 0 0 0 0 0 0 3 38 4 27 227 339 288
0 0 0 0 0 0 0 0 0 0 0 0 0 0 0 0 0 0 0 0 0 0 0 0 0 0 0 0 0 0 0 0 0 0 0 0 0 0 0 13 151 347 452 530 515
0 0 0 0 0 0 0 0 0 0 0 0 0 0 0 0 0 0 0 0 0 0 0 0 0 0 0 0 0 0 0 0 0 0 0 0 0 0 0 93 520 632 757 898 816
0 0 0 0 0 0 0 0 0 0 0 0 0 0 0 0 0 0 0 0 0 0 0 0 0 0 0 0 0 0 0 0 0 0 0 0 0 432 701 759 739 761 843 1003 1155
0 0 0 0 0 0 0 0 0 0 0 0 0 0 0 0 0 0 0 0 0 0 0 0 0 0 0 0 0 0 0 0 0 0 0 0 0 441 864 748 838 921 964 989 995
0 0 0 0 0 0 0 0 0 0 0 0 0 0 0 0 0 0 0 0 0 0 0 0 0 0 0 0 0 0 0 0 0 0 0 0 0 531 726 350 106 194 255 400 223
0 0 0 0 0 0 0 0 0 0 0 0 0 0 0 0 0 0 0 0 0 0 0 0 0 0 0 0 0 0 0 0 0 0 0 0 0 32 276 0 0 0 0 0 0
0 0 0 0 0 0 0 0 0 0 0 0 0 0 0 0 0 0 0 0 0 0 0 0 0 0 0 0 0 0 0 0 0 0 0 0 4 181 210 0 0 0 0 0 0
CIN
0 0 0 0 0 0 0 0 0 0 0 0 0 0 0 0 0 0 0 0 0 -127 -443 -395 0 -267 -293 -247 -205 -183 -62 -6 0 0 0 0 0 0 0 0 0 0 0 0 0
0 0 0 0 0 0 0 0 0 0 0 0 0 0 0 0 0 0 0 0 0 0 0 -325 -267 -260 -203 -215 -232 -153 -87 -42 -16 0 0 0 0 0 0 0 0 0 0 0 0
0 0 0 0 0 0 0 0 0 0 0 0 0 0 0 0 0 0 0 0 0 0 -393 -329 -310 -254 -199 0 -267 -180 -101 -190 -25 0 0 0 -146 0 0 0 0 0 0 -259 0
0 0 0 0 0 0 0 0 0 0 0 0 0 0 0 0 0 0 0 0 0 0 -364 -295 -305 -200 0 -131 -194 -90 -109 -211 0 0 -9 -61 -14 0 -182 -87 0 0 -274 -287 -39
0 0 0 0 0 0 0 0 0 0 0 0 0 0 0 0 0 0 0 0 0 0 -401 -48 -217 -195 0 -124 -147 -118 -78 0 0 0 -92 -126 -123 -129 -191 0 0 0 -280 -269 -277
0 0 0 0 0 0 0 0 0 0 0 0 0 0 0 0 0 0 0 -136 0 0 -253 0 -227 -83 -111 -131 -70 -137 0 0 0 0 0 -78 -113 -140 0 0 0 0 0 -260 -263
0 0 0 0 0 0 0 0 0 0 0 0 0 0 0 0 0 0 0 0 0 0 -153 -164 -202 -193 -181 -122 -70 -17 0 0 0 0 0 -62 -125 -120 -12 0 0 0 0 0 -335
0 0 0 0 0 0 0 0 0 0 0 0 0 0 0 0 0 0 0 0 0 -267 -216 -200 -257 -233 -237 -189 -55 -62 0 0 0 0 0 0 -59 -124 0 -166 -365 0 0 0 0
0 0 0 0 0 0 0 0 0 0 0 0 0 0 0 0 0 0 0 0 0 -136 -331 -255 -170 -236 -261 -92 -44 -60 -27 -29 0 -50 0 0 0 0 0 0 -69 0 0 0 0
0 0 0 0 0 0 0 0 0 0 0 0 0 0 0 0 0 0 0 0 0 0 0 0 0 -186 -141 -65 -24 0 -18 -25 -6 0 -86 0 0 0 0 0 0 0 0 0 0
0 0 0 0 0 0 0 0 0 0 0 0 0 0 0 0 0 0 0 0 0 0 0 0 0 -51 -51 -61 -1 -64 0 -48 0 0 -95 -75 0 0 0 0 0 -422 -461 0 0
0 0 0 0 0 0 0 0 0 0 0 0 0 0 0 0 0 0 0 0 0 0 0 0 -69 -100 0 0 0 -84 -82 -20 -144 -46 -112 -116 -78 -1 0 0 0 -320 -383 -457 -183
0 0 0 0 0 0 0 0 0 0 0 0 0 0 0 0 0 0 0 0 0 0 0 -24 -26 -13 0 0 0 -122 -89 -14 -5 -107 -169 -161 -133 -126 -93 0 0 0 -183 0 -222
0 0 0 0 0 0 0 0 0 0 0 0 0 0 0 0 0 0 0 0 0 0 0 -5 0 0 0 0 0 -69 -109 -101 0 -21 -73 -214 -71 -125 -165 -90 0 0 0 0 0
0 0 0 0 0 0 0 0 0 0 0 0 0 0 0 0 0 0 0 0 0 0 0 0 0 0 0 0 0 0 0 -47 -93 -121 -157 -152 -135 -95 0 -228 -4 0 0 0 0
0 0 0 0 0 0 0 0 0 0 0 0 0 0 0 0 0 0 0 0 0 0 0 0 0 0 0 0 0 0 0 0 0 -173 -90 -112 -146 0 0 -51 -136 -90 0 0 0
0 0 0 0 0 0 0 0 0 0 0 0 0 0 0 0 0 0 0 0 0 0 0 0 0 0 0 0 0 0 0 0 0 0 0 0 0 0 0 0 -183 -127 -164 -212 0
0 0 0 0 0 0 0 0 0 0 0 0 0 0 0 0 0 0 0 0 0 0 0 0 0 0 0 0 0 0 0 0 0 0 0 0 0 0 0 0 -259 -213 -228 -271 -278
0 0 0 0 0 0 0 0 0 0 0 0 0 0 0 0 0 0 0 0 0 0 0 0 0 0 0 0 0 0 0 0 0 0 0 0 0 -16 -213 -263 -252 -229 -222 -209 -263
0 0 0 0 0 0 0 0 0 0 0 0 0 0 0 0 0 0 0 0 0 0 0 0 0 0 0 0 0 0 0 0 0 0 0 0 0 0 -101 -155 -138 -262 -261 -296 -313
0 0 0 0 0 0 0 0 0 0 0 0 0 0 0 0 0 0 0 0 0 0 0 0 0 0 0 0 0 0 0 0 0 0 0 0 0 0 0 -299 -221 -278 -361 -363 -365
0 0 0 0 0 0 0 0 0 0 0 0 0 0 0 0 0 0 0 0 0 0 0 0 0 0 0 0 0 0 0 0 0 0 0 0 0 0 0 -425 -394 -377 -434 -554 -616
0 0 0 0 0 0 0 0 0 0 0 0 0 0 0 0 0 0 0 0 0 0 0 0 0 0 0 0 0 0 0 0 0 0 0 0 0 -456 -497 -488 -557 -459 -552 -577 -557
0 0 0 0 0 0 0 0 0 0 0 0 0 0 0 0 0 0 0 0 0 0 0 0 0 0 0 0 0 0 0 0 0 0 0 0 0 -277 -364 -414 -484 -510 -519 -508 -525
0 0 0 0 0 0 0 0 0 0 0 0 0 0 0 0 0 0 0 0 0 0 0 0 0 0 0 0 0 0 0 0 0 0 0 0 0 -282 -354 -495 -624 -628 -587 -545 -582
0 0 0 0 0 0 0 0 0 0 0 0 0 0 0 0 0 0 0 0 0 0 0 0 0 0 0 0 0 0 0 0 0 0 0 0 -3 -550 -445 0 0 0 0 0 0
0 0 0 0 0 0 0 0 0 0 0 0 0 0 0 0 0 0 0 0 0 0 0 0 0 0 0 0 0 0 0 0 0 0 0 0 -366 -479 -427 0 0 0 0 0 0
Wind_Speed
11 11 12 13 14 15 15 16 16 16 16 16 15 15 14 14 14 16 18 18 21 26 24 25 20 17 14 11 12 12 10 12 19 23 21 25 20 18 15 19 17 18 22 26 30
14 14 14 14 14 15 16 16 16 17 17 16 15 15 14 14 15 17 18 21 22 24 25 24 20 16 13 12 12 13 10 13 17 22 21 27 22 22 13 14 15 14 4 21 27
17 16 16 15 16 16 16 17 17 17 17 17 15 15 14 14 16 17 22 22 23 23 23 22 21 18 14 15 14 14 10 10 14 24 24 28 25 23 4 22 21 24 25 28 29
18 18 17 17 17 17 17 18 18 18 18 18 16 16 15 16 19 16 24 24 26 25 21 21 21 15 13 14 15 11 12 13 11 20 23 28 27 24 25 16 23 23 25 26 29
20 19 18 18 18 18 18 19 19 19 19 18 17 16 17 19 18 7 22 23 26 24 22 20 16 13 12 11 13 12 11 10 11 24 24 23 26 24 25 17 15 22 24 26 28
21 20 19 19 18 18 18 19 20 20 20 19 18 17 19 19 13 10 19 20 23 23 20 19 14 12 13 12 11 10 11 12 7 22 18 24 19 18 20 6 15 20 24 26 28
22 21 20 19 19 18 18 19 20 20 20 20 19 18 19 19 15 11 18 19 18 20 18 17 14 12 12 14 12 12 11 10 10 19 14 20 19 22 20 14 21 23 23 26 29
22 22 20 19 19 19 19 19 20 21 21 21 20 19 19 20 17 7 14 14 16 18 18 15 14 12 13 13 16 15 11 11 13 16 19 22 18 21 22 22 25 27 26 26 29
23 22 21 20 19 19 19 19 19 18 17 16 19 18 17 19 17 16 8 16 12 16 20 17 16 13 12 14 14 14 12 12 13 13 16 21 20 20 24 24 24 27 27 28 30
24 23 22 21 20 20 19 17 13 14 15 17 16 7 8 11 15 11 7 7 13 10 7 9 13 15 17 15 9 16 14 18 18 18 17 23 23 20 23 23 24 25 27 28 30
25 24 23 22 21 20 16 12 13 12 9 7 8 5 8 18 11 6 5 6 8 8 9 12 11 14 12 11 17 17 16 20 27 23 22 23 25 24 20 26 25 26 24 27 29
25 25 23 22 22 21 13 11 11 13 17 3 3 4 4 14 9 5 6 5 4 4 8 9 8 12 14 9 8 12 15 22 10 16 18 21 23 24 25 27 28 25 26 23 27
26 25 24 23 22 13 11 11 14 19 16 15 6 4 6 4 4 3 7 4 3 2 2 3 7 22 21 18 10 9 9 7 13 13 17 20 22 23 25 26 31 31 29 27 24
27 26 24 23 14 13 13 13 18 15 17 14 8 7 4 6 8 3 7 2 7 6 5 10 22 18 21 22 11 11 14 14 19 16 18 4 18 21 18 17 24 28 30 29 26
28 26 24 20 15 11 10 18 14 13 16 12 8 11 6 4 10 2 2 4 2 4 9 11 18 23 23 19 12 15 8 14 5 12 20 11 20 18 11 19 21 25 29 29 26
29 27 24 15 15 16 18 15 11 13 15 11 9 6 3 5 9 9 4 9 7 7 22 31 25 23 23 23 16 17 16 13 16 16 18 11 7 19 11 11 17 22 29 29 24
30 28 21 11 13 12 16 9 12 13 14 11 11 9 4 3 2 8 2 0 2 10 17 25 27 25 26 27 19 15 13 15 13 10 7 16 11 14 10 9 15 23 30 26 22
32 27 11 10 15 14 9 9 13 13 13 16 13 9 4 3 3 7 5 1 10 13 17 21 30 25 22 27 18 12 13 11 15 13 19 18 19 15 15 15 18 23 26 21 20
30 19 17 16 6 12 8 12 13 10 16 18 11 9 6 4 8 5 5 2 8 2 15 15 20 20 21 23 15 17 16 16 14 19 20 19 20 20 16 15 14 11 8 11 23
24 20 17 14 2 9 13 16 16 14 17 15 11 11 5 3 2 5 5 8 6 7 4 13 17 16 15 11 12 14 7 13 16 18 19 18 18 16 16 16 14 12 12 20 21
19 17 18 8 6 14 15 18 20 20 18 17 15 13 11 8 7 8 12 17 14 8 5 10 14 16 16 15 12 12 16 14 13 16 19 20 18 17 23 23 17 13 13 15 19
18 17 15 8 14 19 21 18 18 21 18 23 19 17 13 11 11 10 13 15 21 9 2 6 11 18 17 17 16 11 12 13 14 17 16 18 23 20 20 14 10 13 15 14 14
17 16 12 14 20 21 21 22 22 24 25 21 21 18 17 14 15 15 14 16 18 13 10 6 15 19 15 14 16 13 13 13 13 16 17 20 22 19 16 11 11 11 13 13 13
17 17 16 16 16 17 21 24 25 21 25 24 23 19 17 17 16 16 17 17 19 17 16 12 15 17 15 18 15 15 14 13 15 19 19 22 24 18 15 10 9 11 11 12 12
17 17 16 20 22 21 22 24 26 24 20 20 23 22 19 22 20 20 19 19 17 20 17 15 19 18 17 16 14 16 17 17 20 19 22 24 21 15 13 11 10 8 9 11 12
17 18 18 19 20 22 22 23 25 22 22 22 22 21 20 23 22 21 19 21 22 22 19 20 20 16 18 18 14 17 17 17 20 22 23 20 20 14 9 8 9 9 8 10 11
18 17 17 20 20 18 21 23 22 21 19 17 13 16 17 19 19 20 21 22 22 23 23 22 20 21 25 21 21 25 22 21 20 23 21 21 19 9 7 9 10 9 9 10 12
Wind_Direction
261 241 220 207 207 212 219 224 232 227 219 221 219 208 202 206 199 189 176 163 143 125 122 131 148 147 160 180 179 188 203 198 184 175 187 180 198 200 212 182 197 193 157 127 126
287 272 251 233 218 211 215 220 226 237 231 229 217 214 206 213 181 173 174 123 118 114 122 126 135 145 165 177 180 181 213 205 201 187 188 181 200 197 230 178 221 215 73 105 121
297 288 275 258 243 230 222 224 227 228 233 231 223 220 216 211 162 159 131 117 117 120 129 127 121 127 152 156 164 179 220 243 211 173 165 149 177 192 339 163 189 141 118 127 135
301 292 283 273 261 248 237 230 232 227 228 232 224 225 224 197 121 179 117 116 126 135 149 131 123 156 155 152 154 208 215 226 216 187 174 155 168 184 167 205 170 132 127 128 141
303 295 288 275 269 260 247 240 237 233 230 229 230 234 200 136 134 299 107 114 127 137 151 153 152 164 172 170 167 193 256 241 225 163 168 177 160 178 182 232 81 117 125 137 148
305 296 288 280 272 264 253 245 240 235 231 226 230 235 176 126 244 41 103 108 130 140 151 159 155 176 181 175 195 210 243 241 321 162 195 151 210 234 222 338 96 116 136 147 155
307 298 287 278 269 263 254 246 240 235 234 229 229 201 154 155 250 63 112 126 119 139 144 160 172 171 205 168 221 232 262 304 292 201 221 188 198 192 209 106 133 140 139 154 167
308 299 288 277 269 263 256 246 238 232 233 229 215 190 162 231 248 75 109 111 125 145 154 167 171 172 172 164 349 304 285 308 265 253 223 175 200 201 172 147 162 164 163 164 171
309 302 291 281 273 268 261 249 234 246 266 278 169 163 155 244 145 147 88 139 110 143 186 206 250 191 259 298 306 297 334 325 273 301 264 218 236 216 175 168 164 171 173 179 184
307 301 295 285 279 275 266 259 299 294 288 272 281 6 142 111 140 111 105 114 283 327 31 358 104 72 43 36 303 326 323 269 275 256 273 245 239 248 178 168 169 168 178 185 189
308 302 296 288 281 280 287 315 319 342 357 57 23 36 39 268 320 39 43 77 316 351 60 356 41 100 111 125 321 323 330 291 278 256 261 244 236 234 174 190 183 179 175 184 191
307 302 296 290 282 275 304 329 343 335 317 134 115 158 359 308 346 17 72 92 65 86 7 0 94 143 194 92 59 354 349 330 314 264 274 247 229 246 197 191 190 179 182 177 189
304 300 296 291 282 312 308 319 310 319 330 324 332 339 340 22 8 44 115 84 27 28 23 15 28 286 297 314 27 27 19 69 90 283 264 266 254 234 233 200 205 208 201 194 183
301 297 293 289 312 304 298 298 294 327 325 329 327 324 1 9 335 11 129 36 330 321 317 314 283 301 293 285 20 47 148 139 185 277 233 309 236 256 185 174 185 196 197 195 187
298 293 287 289 303 305 308 283 313 334 317 346 354 321 345 31 356 0 336 329 327 332 314 295 293 281 288 283 353 334 57 155 348 336 325 11 302 243 322 186 184 186 194 193 186
297 291 285 313 294 264 265 287 315 320 311 342 7 2 359 324 347 335 312 304 324 313 281 254 276 283 270 277 315 314 340 299 301 309 314 204 84 246 57 151 179 177 190 189 177
295 285 295 318 300 287 280 312 315 307 327 338 338 350 354 326 347 347 357 218 301 308 292 269 266 273 268 253 283 301 312 320 327 0 90 243 66 179 175 179 161 164 180 177 170
295 288 330 310 285 284 302 305 298 312 316 321 329 339 1 28 19 352 352 349 297 291 292 278 250 273 276 257 289 310 303 322 304 314 262 240 200 183 255 235 156 165 182 166 171
298 313 305 294 146 284 280 287 302 310 311 307 324 327 326 323 346 14 1 83 308 171 283 289 274 270 276 281 292 284 293 292 313 304 296 269 241 235 294 14 26 45 46 290 192
308 303 300 304 197 279 271 277 286 294 304 309 313 313 340 347 70 13 41 3 149 160 294 295 283 290 300 315 306 285 354 300 304 305 298 298 282 278 278 288 333 1 298 250 241
312 300 305 309 283 268 264 274 277 283 292 299 296 300 308 317 292 302 311 297 307 330 279 286 294 285 303 298 314 303 292 313 323 314 304 298 308 306 251 239 271 306 300 300 286
302 290 304 298 271 270 266 275 285 280 290 286 290 287 297 301 303 304 303 302 295 315 295 287 304 288 297 295 298 320 316 317 314 309 314 313 296 328 327 304 326 311 304 325 336
297 296 296 295 272 271 275 277 281 280 280 285 281 282 287 291 292 293 298 311 313 308 302 294 285 283 301 297 298 314 322 330 331 318 307 303 300 336 346 342 329 331 336 336 351
297 285 286 283 288 280 278 279 279 284 280 278 279 282 283 283 295 295 296 302 305 311 304 292 289 280 272 290 296 295 308 318 320 310 308 304 303 318 332 339 348 6 7 6 5
304 292 289 277 273 281 284 283 279 280 285 285 277 271 274 277 284 286 296 301 311 308 304 298 291 290 286 291 295 296 295 299 301 306 303 302 309 309 322 328 335 3 10 17 14
300 295 294 288 287 281 282 284 279 281 284 279 277 272 273 276 280 284 292 295 294 302 302 299 291 293 288 288 291 295 299 303 305 304 301 305 304 303 323 344 347 354 3 2 3
315 308 297 291 288 286 285 283 283 282 291 288 285 283 280 283 290 294 293 295 295 294 292 291 287 283 280 285 285 285 290 296 302 308 306 299 301 298 301 313 322 334 342 347 348